Retour au catalogue

STARLINK-36240

ActifCommunicationsVLEO
NORAD 67076·PAYLOAD·🇺🇸 United States

Lancé Dec 14, 2025 depuis Vandenberg Space Force Base

Loading…

Prochains Passages (prochaines 24 heures)

TLE

FraisSource: CelesTrak SupGP

Époque: Sep 14, 2026, 20:53 UTC

1 67076C 25298B   26257.87062500  .00072070  00000+0  60401-2 0  2577
2 67076  69.9994 257.4891 0003850 266.4501 113.6636 14.98289977    11

Suivez STARLINK-36240 en temps réel avec AllMySat

Download on the App Store